Location: Rounton
(54.4000°N, 1.3500°W)
Time: 17:36:09
(UTC+00:00)

Transit 2A - All Passes

Search period start: 30 November 2021 00:00
Search period end: 10 December 2021 00:00
Orbit: 591 x 967 km, 66.7° (Epoch: 29 November)

Date Brightness Start Highest point End Pass type
(mag) Time Alt. Az. Time Alt. Az. Time Alt. Az.
30 Nov - 00:56:46 10° S 01:02:05 41° ESE 01:07:51 10° NE visible
30 Nov - 02:39:24 10° WSW 02:45:13 61° NW 02:51:29 10° NE visible
30 Nov - 04:24:21 10° WNW 04:29:41 30° NNW 04:35:15 10° NE visible
30 Nov - 06:09:24 10° NW 06:14:45 28° N 06:20:12 10° ENE visible
30 Nov - 07:53:17 10° NW 07:59:28 48° NE 08:05:36 10° ESE daylight
30 Nov - 09:36:44 10° NW 09:43:02 61° WSW 09:49:11 10° SSE daylight
30 Nov - 11:21:36 10° WNW 11:25:09 16° WSW 11:28:38 10° SW daylight
01 Dec - 00:23:04 10° S 00:28:03 32° ESE 00:33:24 10° NE visible
01 Dec - 02:05:02 10° SW 02:10:53 74° NW 02:17:13 10° NE visible
01 Dec - 03:49:42 10° W 03:55:08 33° NNW 04:00:51 10° NE visible
01 Dec - 05:34:55 10° NW 05:40:11 27° N 05:45:32 10° ENE visible
01 Dec - 07:19:00 10° NW 07:25:02 42° NNE 07:31:01 10° E visible
01 Dec - 09:02:26 10° NW 09:08:52 77° SW 09:15:06 10° SSE daylight
01 Dec - 10:46:42 10° WNW 10:51:15 21° WSW 10:55:42 10° SSW daylight
01 Dec - 23:49:35 10° SSE 23:54:05 24° ESE 23:58:52 10° ENE night (unlit)
02 Dec - 01:30:46 10° SW 01:36:36 90° SE 01:42:57 10° NE visible
02 Dec - 03:15:04 10° W 03:20:37 37° NNW 03:26:30 10° NE visible
02 Dec - 05:00:22 10° WNW 05:05:35 27° N 05:10:56 10° ENE visible
02 Dec - 06:44:41 10° NW 06:50:32 37° NNE 06:56:24 10° E visible
02 Dec - 08:28:10 10° NW 08:34:36 87° NE 08:40:55 10° SE daylight
02 Dec - 10:12:04 10° NW 10:17:18 27° WSW 10:22:24 10° SSW daylight
02 Dec - 23:16:24 10° SE 23:20:10 18° ESE 23:24:07 10° ENE night (unlit)
03 Dec - 00:56:37 10° SSW 01:02:23 72° SE 01:08:40 10° NE visible
03 Dec - 02:40:28 10° W 02:46:09 42° NNW 02:52:10 10° NE visible
03 Dec - 04:25:45 10° WNW 04:30:59 27° N 04:36:22 10° NE visible
03 Dec - 06:10:20 10° NW 06:16:02 33° NNE 06:21:44 10° E visible
03 Dec - 07:53:54 10° NW 08:00:19 72° NE 08:06:37 10° SE daylight
03 Dec - 09:37:34 10° NW 09:43:18 35° WSW 09:48:51 10° S daylight
03 Dec - 22:43:44 10° SE 22:46:19 13° E 22:48:59 10° ENE night (unlit)
04 Dec - 00:22:35 10° SSW 00:28:14 57° ESE 00:34:21 10° NE visible
04 Dec - 02:05:56 10° WSW 02:11:43 49° NW 02:17:53 10° NE visible
04 Dec - 03:51:07 10° WNW 03:56:23 28° N 04:01:51 10° NE visible
04 Dec - 05:35:57 10° NW 05:41:29 30° NNE 05:47:03 10° ENE visible
04 Dec - 07:19:38 10° NW 07:25:59 59° NE 07:32:13 10° ESE visible
04 Dec - 09:03:10 10° NW 09:09:14 46° WSW 09:15:06 10° S daylight
04 Dec - 10:50:10 10° W 10:50:59 10° W 10:51:48 10° WSW daylight
04 Dec - 23:48:41 10° S 23:54:07 44° ESE 00:00:00 10° NE night (unlit)
05 Dec - 01:31:27 10° WSW 01:37:19 59° NW 01:43:36 10° NE visible
05 Dec - 03:16:28 10° WNW 03:21:50 30° NNW 03:27:23 10° NE visible
05 Dec - 05:01:31 10° NW 05:06:54 28° N 05:12:22 10° ENE visible
05 Dec - 06:45:22 10° NW 06:51:35 50° NE 06:57:43 10° ESE visible
05 Dec - 08:28:50 10° NW 08:35:07 58° WSW 08:41:11 10° SSE daylight
05 Dec - 10:13:54 10° WNW 10:17:10 15° WSW 10:20:21 10° SW daylight
05 Dec - 23:14:57 10° S 23:20:05 33° ESE 23:25:34 10° NE night (unlit)
06 Dec - 00:57:05 10° SW 01:02:59 71° NW 01:09:21 10° NE visible
06 Dec - 02:41:49 10° W 02:47:16 32° NNW 02:52:59 10° NE visible
06 Dec - 04:27:01 10° NW 04:32:20 27° N 04:37:43 10° ENE visible
06 Dec - 06:11:05 10° NW 06:17:09 43° NNE 06:23:10 10° ESE visible
06 Dec - 07:54:31 10° NW 08:00:57 74° SW 08:07:08 10° SSE daylight
06 Dec - 09:38:55 10° WNW 09:43:16 20° WSW 09:47:32 10° SSW daylight
06 Dec - 22:41:26 10° SSE 22:46:06 26° ESE 22:51:04 10° NE night (unlit)
07 Dec - 00:22:47 10° SW 00:28:41 87° NW 00:35:04 10° NE visible
07 Dec - 02:07:10 10° W 02:12:45 36° NNW 02:18:37 10° NE visible
07 Dec - 03:52:29 10° NW 03:57:44 27° N 04:03:05 10° ENE visible
07 Dec - 05:36:47 10° NW 05:42:41 37° NNE 05:48:33 10° E visible
07 Dec - 07:20:15 10° NW 07:26:42 90° NNE 07:32:58 10° SE visible
07 Dec - 09:04:13 10° NW 09:09:20 26° WSW 09:14:17 10° SSW daylight
07 Dec - 22:08:10 10° SSE 22:12:10 19° ESE 22:16:22 10° ENE night (unlit)
07 Dec - 23:48:36 10° SSW 23:54:27 76° SE 00:00:47 10° NE night (unlit)
08 Dec - 01:32:33 10° W 01:38:16 41° NNW 01:44:18 10° NE visible
08 Dec - 03:17:52 10° WNW 03:23:07 27° N 03:28:31 10° NE visible
08 Dec - 05:02:26 10° NW 05:08:10 34° NNE 05:13:54 10° E visible
08 Dec - 06:45:59 10° NW 06:52:26 74° NE 06:58:41 10° SE visible
08 Dec - 08:29:42 10° NW 08:35:20 34° WSW 08:40:46 10° S daylight
08 Dec - 21:35:21 10° SE 21:38:18 14° E 21:41:21 10° ENE night (unlit)
08 Dec - 23:14:33 10° SSW 23:20:17 60° ESE 23:26:29 10° NE night (unlit)
09 Dec - 00:58:01 10° WSW 01:03:49 48° NW 01:10:00 10° NE visible
09 Dec - 02:43:14 10° WNW 02:48:33 28° N 02:53:59 10° NE visible
09 Dec - 04:28:03 10° NW 04:33:38 31° NNE 04:39:12 10° ENE visible
09 Dec - 06:11:43 10° NW 06:18:05 61° NE 06:24:18 10° ESE visible
09 Dec - 07:55:17 10° NW 08:01:17 43° WSW 08:07:03 10° S daylight
09 Dec - 22:40:38 10° S 22:46:10 46° ESE 22:52:07 10° NE night (unlit)
